This demonstration page uses our WeatherBlox Daily Observations layout. Learn more.

Left ArrowRight Arrow

40.92945, -100.16068

Hourly Observations for April 1, 2019

Temp ( °F °C ) Dew Point ( °F °C ) Humidity (%) Winds ( mph kmh ) Pressure ( in mb ) Visibility ( mi km ) Precip ( " mm )
12:15 am 00:15 Clear 39 4.1 28 -2.1 64 64 SSW 9 15 30.22 1023 10 16 0.00 0.00
12:35 am 00:35 Clear 39 4.1 29 -1.8 66 66 SSW 10 17 30.22 1023 10 16 0.00 0.00
12:55 am 00:55 Clear 42 5.3 29 -1.7 61 61 SSW 9 15 30.20 1023 10 16 0.00 0.00
1:15 am 01:15 Clear 41 5 29 -1.6 63 63 SSW 10 17 30.20 1023 10 16 0.00 0.00
1:35 am 01:35 Clear 40 4.7 29 -1.6 64 64 SSW 10 17 30.20 1023 10 16 0.00 0.00
1:55 am 01:55 Clear 39 4.1 29 -1.6 67 67 SSW 9 15 30.20 1023 10 16 0.00 0.00
2:15 am 02:15 Clear 39 4 29 -1.5 68 68 SSW 9 15 30.20 1023 10 16 0.00 0.00
2:35 am 02:35 Clear 39 3.8 29 -1.5 69 69 SW 7 11 30.19 1022 10 16 0.00 0.00
2:55 am 02:55 Clear 39 4 30 -1.1 70 70 SW 10 17 30.19 1022 10 16 0.00 0.00
3:15 am 03:15 Clear 40 4.3 30 -0.9 69 69 SW 13 20 30.18 1022 10 16 0.00 0.00
3:35 am 03:35 Clear 40 4.2 31 -0.8 70 70 SW 13 20 30.17 1022 10 16 0.00 0.00
3:55 am 03:55 Clear 39 3.9 31 -0.8 72 72 SW 12 19 30.17 1022 10 16 0.00 0.00
4:15 am 04:15 Clear 39 3.8 30 -1 71 71 WSW 7 11 30.16 1021 10 16 0.00 0.00
4:35 am 04:35 Clear 38 3.2 30 -1.2 73 73 WNW 3 6 30.17 1022 10 16 0.00 0.00
4:55 am 04:55 Clear 36 2 29 -1.6 77 77 W 5 7 30.18 1022 10 16 0.00 0.00
5:15 am 05:15 Clear 36 2 29 -1.6 77 77 W 3 6 30.16 1021 10 16 0.00 0.00
5:35 am 05:35 Clear 34 1.3 28 -2.1 78 78 N 10 17 30.17 1022 10 16 0.00 0.00
5:55 am 05:55 Clear 33 0.3 29 -1.8 86 86 N 7 11 30.18 1022 10 16 0.00 0.00
6:15 am 06:15 Clear 33 0.5 29 -1.7 85 85 Calm 30.18 1022 10 16 0.00 0.00
6:35 am 06:35 Clear 32 -0.1 28 -2.1 87 87 Calm 30.19 1022 10 16 0.00 0.00
6:55 am 06:55 Clear 31 -0.5 28 -2.3 88 88 Calm 30.19 1022 10 16 0.00 0.00
7:15 am 07:15 Clear 31 -0.5 28 -2.4 87 87 Calm 30.20 1023 10 16 0.00 0.00
7:35 am 07:35 Sunny 31 -0.8 28 -2.5 88 88 Calm 30.21 1023 10 16 0.00 0.00
7:55 am 07:55 Sunny 31 -0.6 28 -2.4 88 88 Calm 30.21 1023 10 16 0.00 0.00
8:15 am 08:15 Sunny 32 -0.1 29 -1.6 90 90 Calm 30.21 1023 10 16 0.00 0.00
8:35 am 08:35 Sunny 33 0.8 31 -0.8 89 89 NNE 3 6 30.20 1023 10 16 0.00 0.00
8:55 am 08:55 Sunny 35 1.6 30 -1 83 83 ENE 5 7 30.19 1022 10 16 0.00 0.00
9:15 am 09:15 Sunny 36 2.4 31 -0.8 80 80 ENE 7 11 30.18 1022 10 16 0.00 0.00
9:35 am 09:35 Sunny 37 3 31 -0.3 79 79 ENE 7 11 30.17 1022 10 16 0.00 0.00
9:55 am 09:55 Sunny 39 4 32 0.1 76 76 ENE 7 11 30.15 1021 10 16 0.00 0.00
10:15 am 10:15 Sunny 41 4.8 32 0.1 72 72 E 5 7 30.14 1021 10 16 0.00 0.00
10:35 am 10:35 Sunny 42 5.5 33 0.3 69 69 E 5 7 30.13 1020 10 16 0.00 0.00
10:55 am 10:55 Sunny 43 6.2 33 0.7 68 68 E 6 9 30.12 1020 10 16 0.00 0.00
11:15 am 11:15 Sunny 45 7.1 34 0.9 65 65 E 8 13 30.10 1019 10 16 0.00 0.00
11:35 am 11:35 Sunny 46 8 34 0.9 61 61 ESE 6 9 30.08 1019 10 16 0.00 0.00
11:55 am 11:55 Sunny 47 8.5 34 1.2 60 60 SE 7 11 30.08 1018 10 16 0.00 0.00
12:15 pm 12:15 Sunny 49 9.2 34 1.2 58 58 ESE 7 11 30.06 1018 10 16 0.00 0.00
12:35 pm 12:35 Sunny 51 10.5 36 2 56 56 SE 9 15 30.04 1017 10 16 0.00 0.00
12:55 pm 12:55 Sunny 53 11.8 36 2 51 51 SE 7 11 30.01 1016 10 16 0.00 0.00
1:15 pm 13:15 Sunny 55 12.6 34 1.2 46 46 SSE 5 7 30.00 1016 10 16 0.00 0.00
1:35 pm 13:35 Sunny 56 13.5 35 1.4 44 44 SE 6 9 29.98 1015 10 16 0.00 0.00
1:55 pm 13:55 Sunny 57 13.8 34 0.9 42 42 SSE 3 6 29.97 1015 10 16 0.00 0.00
2:15 pm 14:15 Sunny 58 14.4 34 1.3 41 41 SSE 7 11 29.95 1014 10 16 0.00 0.00
2:35 pm 14:35 Sunny 58 14.7 32 0.1 37 37 SSW 9 15 29.94 1014 10 16 0.00 0.00
2:55 pm 14:55 Sunny 59 14.9 30 -1.2 33 33 SSW 9 15 29.93 1013 10 16 0.00 0.00
3:15 pm 15:15 Sunny 60 15.4 31 -0.5 34 34 SSW 6 9 29.91 1013 10 16 0.00 0.00
3:35 pm 15:35 Partly Cloudy 61 15.9 29 -1.5 31 31 SSW 12 19 29.90 1012 10 16 0.00 0.00
3:55 pm 15:55 Partly Cloudy 60 15.3 29 -1.8 31 31 WSW 7 11 29.88 1012 10 16 0.00 0.00
4:15 pm 16:15 Partly Cloudy 61 16.1 30 -1.2 31 31 WSW 12 19 29.87 1011 10 16 0.00 0.00
4:35 pm 16:35 Partly Cloudy 61 16.3 29 -1.8 29 29 SSW 10 17 29.85 1011 10 16 0.00 0.00
4:55 pm 16:55 Sunny 62 16.9 30 -1.1 30 30 SSW 10 17 29.84 1010 10 16 0.00 0.00
5:15 pm 17:15 Partly Cloudy 62 16.7 30 -1.2 30 30 W 5 7 29.83 1010 10 16 0.00 0.00
5:35 pm 17:35 Sunny 63 17 30 -1.2 29 29 SSW 8 13 29.82 1010 10 16 0.00 0.00
5:55 pm 17:55 Sunny 62 16.5 28 -2.1 28 28 SSW 7 11 29.81 1010 10 16 0.00 0.00
6:15 pm 18:15 Mostly Cloudy 61 16.2 29 -1.4 30 30 SW 8 13 29.83 1010 10 16 0.00 0.00
6:35 pm 18:35 Cloudy 58 14.6 33 0.3 38 38 WSW 21 33 29.88 1012 10 16 0.00 0.00
6:55 pm 18:55 Cloudy with Drizzle 53 11.5 39 4 60 60 WNW 16 26 29.92 1013 10 16 0.00 0.00
7:15 pm 19:15 Cloudy 53 11.5 39 4.1 61 61 NW 9 15 29.91 1013 10 16 0.00 0.00
7:35 pm 19:35 Cloudy 54 12.3 37 3 53 53 WNW 8 13 29.91 1013 10 16 0.00 0.00
7:55 pm 19:55 Cloudy 52 11.3 40 4.2 62 62 N 18 30 29.93 1014 10 16 0.00 0.00
8:15 pm 20:15 Partly Cloudy 48 9.1 41 4.9 75 75 NNE 8 13 29.94 1014 10 16 0.00 0.00
8:35 pm 20:35 Partly Cloudy 47 8.5 41 4.8 78 78 NNE 6 9 29.95 1014 10 16 0.00 0.00
8:55 pm 20:55 Partly Cloudy 45 7.3 40 4.2 81 81 Calm 29.98 1015 10 16 0.00 0.00
9:15 pm 21:15 Clear 42 5.8 39 3.7 87 87 NNW 3 6 30.00 1016 10 16 0.00 0.00
9:35 pm 21:35 Clear 42 5.7 39 3.7 87 87 NNW 13 20 30.03 1017 10 16 0.00 0.00
9:55 pm 21:55 Partly Cloudy 42 5.5 37 2.8 83 83 N 21 33 30.06 1018 10 16 0.00 0.00
10:15 pm 22:15 Mostly Cloudy 39 4.1 36 2 86 86 NNE 18 30 30.09 1019 10 16 0.00 0.00
10:35 pm 22:35 Cloudy 38 3.5 35 1.5 87 87 NNE 16 26 30.10 1019 10 16 0.00 0.00
10:55 pm 22:55 Cloudy 38 3.3 35 1.4 88 88 N 15 24 30.12 1020 10 16 0.00 0.00
11:15 pm 23:15 Cloudy 37 3 34 0.9 86 86 NNE 16 26 30.14 1021 10 16 0.00 0.00
11:35 pm 23:35 Cloudy 37 2.7 33 0.5 86 86 NNE 12 19 30.15 1021 10 16 0.00 0.00
11:55 pm 23:55 Cloudy 37 2.6 33 0.5 86 86 NNE 10 17 30.15 1021 10 16 0.00 0.00

Powered by AerisWeather